Waarnemingen

Advertentie
Mijn weer
Spa/La Sauveniere, België (6490): temperatuur & dauwpunt: 01.12.2019 08:00:00 - 07.12.2019 08:00:00 (CET)Spa/La Sauveniere, België (6490): windsnelheid & windstoten: 01.12.2019 08:00:00 - 07.12.2019 08:00:00 (CET)Spa/La Sauveniere, België (6490): windrichting: 01.12.2019 08:00:00 - 07.12.2019 08:00:00 (CET)Spa/La Sauveniere, België (6490): luchtdruk: 01.12.2019 08:00:00 - 07.12.2019 08:00:00 (CET)Spa/La Sauveniere, België (6490): zicht: 01.12.2019 08:00:00 - 07.12.2019 08:00:00 (CET)
Datum & Tijd tt [°C] td [°C] ff [km/u] ff [kn] fx [km/u] fx [kn] dd ppp [hPa] vv [km]
07.12.2019 08:00:00 5,7 4,5 18 10 36 19 W 1014,2 13
07.12.2019 07:00:00 5,9 4,8 18 10 - - W 1013,5 12
07.12.2019 06:00:00 5,9 4,8 18 10 32 18 W 1012,7 8
07.12.2019 05:00:00 5,9 4,9 18 10 40 21 W 1012,1 10
07.12.2019 04:00:00 6,1 5,3 22 12 - - W 1011,3 11
07.12.2019 03:00:00 6,3 5,3 22 12 40 21 W 1010,5 12
07.12.2019 02:00:00 6,3 5,1 25 14 54 29 W 1009,7 18
07.12.2019 01:00:00 6,3 5,4 29 16 - - WZW 1009,4 30
07.12.2019 00:00:00 5,7 4,8 25 14 54 29 ZW 1008,7 4,9
06.12.2019 23:00:00 5,1 3,9 32 18 54 29 ZW 1008,9 24
06.12.2019 22:00:00 4,7 3,9 29 16 - - ZW 1009,1 6
06.12.2019 21:00:00 4,2 3,0 29 16 58 31 ZZW 1009,1 7
06.12.2019 20:00:00 3,6 3,0 25 14 54 29 ZZW 1009,3 4,2
06.12.2019 19:00:00 3,6 2,9 32 18 - - Z 1009,3 6
06.12.2019 18:00:00 3,4 2,4 25 14 47 25 Z 1009,7 3,2
06.12.2019 17:00:00 3,2 2,1 29 16 50 27 Z 1010,1 19
06.12.2019 16:00:00 3,5 2,2 29 16 - - Z 1010,8 14
06.12.2019 15:00:00 3,4 1,9 25 14 43 23 Z 1011,9 9
06.12.2019 14:00:00 3,2 1,6 25 14 47 25 Z 1012,6 12
06.12.2019 13:00:00 2,6 1,2 22 12 - - Z 1013,6 8
06.12.2019 12:00:00 2,6 0,7 25 14 40 21 Z 1014,8 9
06.12.2019 11:00:00 1,8 -0,9 18 10 40 21 Z 1015,6 19
06.12.2019 10:00:00 0,5 -2,2 18 10 - - Z 1016,5 18
06.12.2019 09:00:00 -0,2 -2,7 29 16 54 29 ZZO 1016,4 15
06.12.2019 08:00:00 -1,0 -3,3 29 16 54 29 Z 1016,7 13
06.12.2019 07:00:00 -1,6 -3,5 25 14 - - Z 1017,2 8
06.12.2019 06:00:00 -1,4 -4,3 29 16 54 29 ZZO 1017,5 12
06.12.2019 05:00:00 -1,3 -4,1 29 16 61 33 Z 1018,2 10
06.12.2019 04:00:00 -0,1 -3,5 14 8 - - Z 1018,4 -
06.12.2019 03:00:00 -2,1 -4,7 18 10 40 21 Z 1018,7 -
06.12.2019 02:00:00 -2,3 -5,1 22 12 40 21 Z 1019,6 10
06.12.2019 01:00:00 -1,6 -5,4 14 8 - - Z 1020,2 13
06.12.2019 00:00:00 -0,9 -5,2 18 10 32 18 Z 1020,8 16
05.12.2019 23:00:00 -1,9 -5,3 11 6 32 18 Z 1020,9 -
05.12.2019 22:00:00 -1,9 -5,1 14 8 - - Z 1021,0 11
05.12.2019 21:00:00 -1,7 -4,8 14 8 25 14 ZZW 1021,4 10
05.12.2019 20:00:00 -0,7 -4,1 11 6 25 14 ZW 1021,9 12
05.12.2019 19:00:00 0,1 -2,8 18 10 - - ZZW 1021,9 9
05.12.2019 18:00:00 0,6 -4,8 11 6 18 10 ZW 1022,0 9
05.12.2019 17:00:00 0,7 -5,5 7 4 11 6 ZW 1022,0 17
05.12.2019 16:00:00 3,0 -3,1 4 2 - - WZW 1021,7 22
05.12.2019 15:00:00 4,4 -1,7 7 4 25 14 ZZW 1021,1 19
05.12.2019 14:00:00 3,9 -2,1 14 8 25 14 Z 1021,0 19
05.12.2019 13:00:00 3,0 -2,2 11 6 - - Z 1021,7 23
05.12.2019 12:00:00 2,5 -2,1 7 4 14 8 ZZW 1022,6 19
05.12.2019 11:00:00 1,8 -1,6 4 2 14 8 ZW 1023,3 14
05.12.2019 10:00:00 -0,5 -3,9 4 2 - - ZW 1023,7 12
05.12.2019 09:00:00 -1,6 -4,9 7 4 11 6 ZZW 1023,3 12
05.12.2019 08:00:00 -1,2 -4,8 7 4 14 8 ZZO 1022,5 15
05.12.2019 07:00:00 -1,2 -5,1 7 4 - - ZZW 1022,3 13
05.12.2019 06:00:00 -0,9 -5,2 7 4 14 8 ZZW 1022,4 18
05.12.2019 05:00:00 -1,1 -5,3 7 4 18 10 Z 1022,3 24
05.12.2019 04:00:00 -0,2 -5,5 14 8 - - ZZO 1021,7 27
05.12.2019 03:00:00 0,0 -5,0 14 8 18 10 Z 1022,0 30
05.12.2019 02:00:00 0,1 -5,1 7 4 25 14 Z 1021,4 30
05.12.2019 01:00:00 0,7 -5,3 14 8 - - Z 1021,3 40
05.12.2019 00:00:00 1,0 -4,7 18 10 25 14 Z 1021,2 45
04.12.2019 23:00:00 1,1 -5,6 7 4 32 18 ZW 1021,4 45
04.12.2019 22:00:00 2,3 -5,8 14 8 - - ZZO 1020,4 45
04.12.2019 21:00:00 3,1 -6,0 18 10 29 16 Z 1020,5 45
04.12.2019 20:00:00 2,9 -5,8 4 2 18 10 - 1020,6 45
04.12.2019 19:00:00 1,7 -5,8 4 2 - - ZZO 1020,7 50
04.12.2019 18:00:00 2,3 -5,3 7 4 11 6 OZO 1020,5 45
04.12.2019 17:00:00 3,0 -4,9 4 2 4 2 Z 1020,8 50
04.12.2019 16:00:00 5,3 -2,8 0 0 - - N 1020,2 45
04.12.2019 15:00:00 6,9 -2,0 7 4 18 10 O 1019,7 45
04.12.2019 14:00:00 6,6 -2,5 4 2 14 8 - 1020,0 45
04.12.2019 13:00:00 5,8 0,0 4 2 - - ONO 1020,9 40
04.12.2019 12:00:00 4,3 -1,0 7 4 29 16 ZO 1021,9 45
04.12.2019 11:00:00 3,0 -1,6 22 12 32 18 ZZO 1023,3 35
04.12.2019 10:00:00 1,8 -2,1 18 10 - - ZZO 1023,4 45
04.12.2019 09:00:00 1,7 -1,9 14 8 22 12 ZZO 1023,5 50
04.12.2019 08:00:00 1,6 -1,9 18 10 22 12 ZO 1023,7 40
04.12.2019 07:00:00 1,3 -1,5 14 8 - - ZZO 1023,8 50
04.12.2019 06:00:00 0,2 -1,9 7 4 14 8 OZO 1024,3 21
04.12.2019 05:00:00 0,2 -1,6 7 4 25 14 O 1024,4 17
04.12.2019 04:00:00 1,8 -1,0 14 8 - - ZZO 1024,1 35
04.12.2019 03:00:00 1,8 -0,6 25 14 36 19 ZZO 1024,7 21
04.12.2019 02:00:00 1,9 -0,5 22 12 32 18 ZZO 1025,2 19
04.12.2019 01:00:00 2,0 -1,0 22 12 - - ZZO 1026,0 28
04.12.2019 00:00:00 2,1 -1,7 14 8 22 12 ZZO 1026,6 23
03.12.2019 23:00:00 1,5 -2,3 7 4 14 8 ZO 1027,0 17
03.12.2019 22:00:00 1,9 1,9 7 4 - - ZZO 1027,2 20
03.12.2019 21:00:00 2,0 -0,1 4 2 11 6 ZZO 1027,8 13
03.12.2019 20:00:00 2,7 -0,1 4 2 11 6 Z 1028,1 11
03.12.2019 19:00:00 3,4 0,2 4 2 - - Z 1028,1 10
03.12.2019 18:00:00 3,6 0,4 7 4 7 4 Z 1028,3 16
03.12.2019 17:00:00 4,0 0,3 4 2 7 4 - 1028,4 28
03.12.2019 16:00:00 4,0 0,2 7 4 - - WZW 1028,3 28
03.12.2019 15:00:00 4,4 0,4 7 4 14 8 ZW 1028,0 29
03.12.2019 14:00:00 4,7 0,6 7 4 7 4 Z 1028,5 35
03.12.2019 13:00:00 4,7 0,4 4 2 - - Z 1029,1 45
03.12.2019 12:00:00 4,5 4,5 4 2 11 6 W 1030,0 45
03.12.2019 11:00:00 3,9 3,5 7 4 11 6 Z 1030,4 18
03.12.2019 10:00:00 3,4 0,4 4 2 - - - 1030,5 13
03.12.2019 09:00:00 3,3 0,1 0 0 4 2 N 1030,4 0,6
03.12.2019 08:00:00 3,3 3,0 4 2 4 2 Z 1030,0 0,2
03.12.2019 07:00:00 3,3 2,9 4 2 - - WNW 1029,9 -
03.12.2019 06:00:00 3,2 2,6 4 2 7 4 WNW 1029,9 0,1
03.12.2019 05:00:00 3,2 2,6 4 2 7 4 W 1030,0 0,1
03.12.2019 04:00:00 3,2 2,6 4 2 - - WNW 1030,1 0,1
03.12.2019 03:00:00 3,0 2,5 4 2 7 4 NW 1030,3 -
03.12.2019 02:00:00 3,0 2,2 4 2 14 8 WNW 1029,9 -
03.12.2019 01:00:00 2,9 2,3 7 4 - - NW 1030,2 0,1
03.12.2019 00:00:00 2,8 2,2 4 2 11 6 WNW 1030,3 0,1
02.12.2019 23:00:00 2,7 1,8 4 2 11 6 NW 1029,8 -
02.12.2019 22:00:00 2,7 1,8 4 2 - - W 1029,9 0,1
02.12.2019 21:00:00 2,5 1,5 7 4 11 6 W 1030,0 0,1
02.12.2019 20:00:00 2,3 1,5 4 2 7 4 W 1029,7 0,1
02.12.2019 19:00:00 1,9 1,0 4 2 - - WZW 1029,3 0,1
02.12.2019 18:00:00 1,6 0,9 4 2 11 6 W 1029,2 0,1
02.12.2019 17:00:00 1,6 0,7 7 4 11 6 W 1028,9 0,1
02.12.2019 16:00:00 1,6 1,0 7 4 - - W 1028,8 0,2
02.12.2019 15:00:00 1,6 -0,9 7 4 14 8 W 1028,2 0,3
02.12.2019 14:00:00 1,9 1,4 7 4 11 6 W 1028,4 3,5
02.12.2019 13:00:00 1,2 -0,5 7 4 - - WNW 1028,9 0,7
02.12.2019 12:00:00 0,9 -1,2 7 4 11 6 W 1028,8 0,8
02.12.2019 11:00:00 0,2 -2,0 4 2 11 6 W 1028,8 0,6
02.12.2019 10:00:00 -0,4 -2,5 4 2 - - ZZW 1028,0 0,2
02.12.2019 09:00:00 -1,0 -2,7 4 2 7 4 ZW 1027,5 0,3
02.12.2019 08:00:00 -1,4 -3,2 4 2 7 4 W 1027,0 0,2
02.12.2019 07:00:00 -1,0 -3,4 4 2 - - NNW 1026,6 -
02.12.2019 06:00:00 -1,4 -4,6 4 2 7 4 OZO 1026,2 11
02.12.2019 05:00:00 -3,1 -5,0 4 2 14 8 O 1025,9 2,5
02.12.2019 04:00:00 -3,4 -4,2 7 4 - - NNW 1025,8 -
02.12.2019 03:00:00 -2,2 -5,4 4 2 7 4 O 1024,7 9
02.12.2019 02:00:00 -2,4 -4,9 4 2 14 8 NO 1024,3 1,1
02.12.2019 01:00:00 -1,9 -3,6 4 2 - - NNO 1023,9 1,5
02.12.2019 00:00:00 -1,9 -3,0 11 6 14 8 NNW 1023,7 0,9
01.12.2019 23:00:00 -1,4 -3,4 7 4 18 10 NNO 1022,8 -
01.12.2019 22:00:00 -0,6 -2,7 7 4 - - N 1022,2 26
01.12.2019 21:00:00 -0,2 -3,5 4 2 11 6 NO 1021,4 35
01.12.2019 20:00:00 -0,1 -3,2 7 4 11 6 N 1021,3 35
01.12.2019 19:00:00 0,1 -3,9 4 2 - - N 1020,5 45
01.12.2019 18:00:00 0,0 -3,6 7 4 18 10 NO 1019,7 45
01.12.2019 17:00:00 0,5 -3,7 7 4 14 8 ONO 1018,8 45
01.12.2019 16:00:00 0,7 -3,8 11 6 - - O 1018,5 45
01.12.2019 15:00:00 0,9 -3,7 11 6 18 10 O 1018,5 45
01.12.2019 14:00:00 1,2 -3,9 7 4 22 12 O 1018,6 40
01.12.2019 13:00:00 1,1 -4,1 7 4 - - O 1018,6 45
01.12.2019 12:00:00 1,2 -4,0 11 6 32 18 O 1018,6 40
01.12.2019 11:00:00 1,0 -4,3 11 6 43 23 OZO 1018,4 40
01.12.2019 10:00:00 0,7 -4,5 29 16 - - ZO 1017,2 45
01.12.2019 09:00:00 0,8 -4,4 29 16 40 21 ZO 1017,3 45
01.12.2019 08:00:00 0,7 -4,4 18 10 36 19 ZO 1017,4 45

tt = temperatuur
td = dauwpunt
ff = windsnelheid
fx = windstoten
dd = windrichting
ppp = luchtdruk
vv = zicht

Weerstations in de omgeving